Temperature
18 18 18 18 18 18 18 18 18 18 18 18 18 19 19 19 18 18 18 18 18 18 18 17 17 17 17 17 17 17 17 16 16 16 16 16 16 16 16 16 16 16 16
18 18 18 18 18 18 18 18 18 18 18 18 18 18 18 18 18 18 18 18 18 18 17 17 17 17 17 17 17 17 17 16 16 16 16 16 16 16 16 16 16 16 16
18 18 18 18 18 18 18 18 18 18 18 18 18 18 18 18 18 18 18 17 17 17 17 17 17 17 17 17 17 17 16 16 16 16 16 16 16 16 16 16 16 15 15
18 18 18 18 18 18 18 18 18 18 18 18 18 18 18 18 18 18 17 17 17 17 17 17 17 17 17 17 17 17 16 16 16 16 16 16 16 16 16 16 15 15 15
18 18 18 18 18 18 18 18 18 18 18 18 18 18 18 18 18 18 17 17 17 17 17 17 17 17 17 17 17 16 16 16 16 16 16 16 16 15 15 15 15 15 15
18 18 18 18 18 18 18 18 18 18 18 18 18 18 18 18 18 17 17 17 17 17 17 17 17 16 16 17 17 16 16 16 16 16 16 15 15 15 15 15 15 15 15
18 18 18 18 18 18 18 18 18 18 18 18 18 18 18 17 17 17 17 17 17 17 17 16 16 16 16 16 16 16 16 16 16 16 15 15 15 15 15 15 15 15 15
18 18 18 18 18 18 18 18 18 18 18 18 18 18 17 17 17 17 17 17 17 17 17 16 16 16 16 16 16 16 16 16 16 15 15 15 15 15 15 15 14 14 14
18 18 18 18 18 18 18 18 18 18 18 18 18 18 17 17 17 17 17 17 17 17 17 16 16 16 16 16 16 16 16 15 15 15 15 15 15 15 14 14 14 14 14
19 18 18 18 18 18 18 18 18 18 18 18 18 18 18 18 17 17 17 17 17 16 16 16 16 16 16 16 15 15 15 15 15 15 15 14 14 14 14 14 14 14 14
19 18 18 18 18 18 18 18 18 18 18 18 18 18 18 18 17 17 16 16 16 16 16 16 16 15 15 15 15 15 15 15 15 15 14 14 14 14 14 14 14 14 13
18 18 18 18 18 18 18 18 18 18 18 18 18 18 18 17 17 17 17 16 16 16 16 15 15 15 15 15 15 15 15 15 14 14 14 14 14 14 13 13 13 13 13
18 18 18 18 18 18 18 18 18 18 18 18 18 18 17 17 17 17 17 16 16 15 15 15 15 15 14 15 14 14 14 14 14 14 14 14 13 13 13 13 13 13 13
18 18 18 18 18 18 18 18 18 17 17 17 17 17 17 17 17 17 16 16 15 15 15 15 14 14 14 14 14 14 14 14 14 13 13 13 13 13 13 13 13 12 12
18 18 18 18 18 18 18 17 17 17 17 17 17 17 17 17 17 16 16 16 16 15 14 14 14 14 14 14 14 14 13 13 13 13 13 13 13 13 13 12 12 12 12
18 18 18 17 17 17 17 17 17 17 17 17 17 17 17 16 16 16 16 16 16 15 14 14 14 14 13 13 13 13 13 13 13 13 13 12 12 12 12 12 12 12 11
18 18 17 17 17 17 17 17 17 17 17 17 16 16 16 16 16 16 16 16 15 15 15 14 14 13 13 13 13 13 13 13 12 12 12 12 12 12 12 12 11 11 11
18 17 17 17 17 17 17 17 16 16 16 16 16 16 16 15 15 15 15 15 15 15 15 14 13 13 13 13 12 12 12 12 12 12 12 12 12 11 11 11 11 11 11
17 17 17 17 17 16 16 16 16 16 16 16 16 16 15 15 15 15 15 15 15 14 14 14 14 13 13 12 12 12 12 12 12 12 12 11 11 11 11 11 11 11 10
17 17 17 17 16 16 16 16 16 16 16 15 15 15 15 15 15 15 15 15 14 14 14 14 13 13 13 12 12 12 12 11 11 11 11 11 11 11 11 11 11 10 10
17 17 17 17 16 16 16 16 16 15 15 15 15 15 15 15 14 14 14 14 14 14 14 13 13 13 12 12 12 12 11 11 11 11 11 11 11 11 11 10 10 10 10
17 17 17 16 16 16 16 16 16 15 15 15 15 15 15 14 14 14 14 14 14 14 14 13 13 13 12 12 12 11 11 11 11 11 11 11 10 10 10 10 10 10 10
17 17 17 17 16 16 16 16 16 15 15 15 14 14 14 14 14 14 14 14 14 14 13 13 13 13 12 12 12 11 11 11 11 11 11 10 10 10 10 10 10 10 10
17 17 17 17 16 16 16 16 15 15 15 15 14 14 14 14 14 14 14 13 13 13 13 13 13 12 12 12 12 11 11 11 11 11 10 10 10 10 10 10 10 10 10
17 17 17 16 16 16 16 15 15 15 15 14 14 14 14 14 14 13 13 13 13 13 13 12 12 12 12 12 12 11 11 11 10 11 10 10 10 10 10 10 10 10 10
17 16 16 16 16 16 16 15 15 15 15 14 14 14 14 14 13 13 13 13 12 12 12 12 12 12 12 11 11 11 11 10 10 10 10 10 10 10 9 10 10 10 9
Wind_Speed
1 2 1 1 1 2 3 0 1 2 1 2 2 2 2 4 8 10 11 13 12 11 9 8 7 7 7 8 8 8 7 7 7 6 6 6 7 7 7 6 7 7 7
2 1 0 1 1 1 2 1 0 1 1 1 1 2 3 3 5 8 10 11 11 11 10 9 8 7 7 8 8 8 8 8 7 7 7 6 6 6 6 7 6 6 7
2 0 0 0 1 1 1 1 0 0 1 1 0 1 2 2 2 5 8 9 10 10 10 9 8 8 7 7 7 8 8 7 7 6 6 5 5 5 5 6 6 6 6
1 0 0 0 1 1 1 0 0 1 0 0 1 1 1 2 1 2 4 8 9 8 9 9 8 7 7 7 7 7 7 7 7 7 7 6 5 5 5 5 6 6 5
3 2 1 1 1 1 1 1 1 0 0 0 1 1 1 1 1 1 1 2 5 7 8 9 8 6 5 5 5 6 6 6 6 6 6 6 6 5 5 5 5 6 6
2 2 2 1 1 0 1 1 1 1 1 1 2 0 0 1 1 1 1 2 3 5 6 7 8 5 4 3 3 4 4 5 5 6 6 6 6 6 6 5 5 4 4
1 2 1 1 1 1 1 1 0 1 1 0 0 1 0 1 1 1 1 1 2 3 5 6 6 5 5 4 3 3 3 3 3 4 4 4 4 4 5 6 6 5 4
1 2 1 1 1 1 1 1 1 1 2 1 1 0 0 0 1 1 2 2 1 3 3 5 6 6 5 6 4 4 3 3 4 4 4 3 3 3 4 5 5 5 5
1 1 1 1 1 1 2 2 2 2 2 2 2 1 1 1 0 0 1 1 2 1 2 4 5 6 5 6 6 5 5 5 5 5 4 4 4 3 2 2 2 2 3
2 2 1 1 1 1 1 2 2 3 2 3 2 1 1 1 1 1 0 1 2 2 1 2 4 6 6 6 7 7 7 6 6 5 4 4 4 4 4 4 4 3 3
2 2 1 1 1 1 1 2 1 2 2 2 2 1 1 2 2 2 1 1 1 1 1 2 3 5 6 7 7 7 8 7 6 6 5 5 5 6 6 6 6 6 5
1 2 1 0 1 1 1 1 2 2 2 2 2 2 1 1 1 1 2 2 1 0 1 2 2 4 6 7 7 7 9 9 8 7 6 6 5 5 6 6 6 6 6
1 1 0 1 1 1 1 1 1 1 2 2 2 2 2 2 1 1 2 1 1 0 1 1 2 4 6 8 8 9 9 9 9 8 7 6 5 6 6 6 6 6 6
0 1 1 1 0 1 1 1 1 1 1 2 2 2 2 2 1 1 1 2 1 1 1 1 2 4 5 8 8 8 8 10 10 9 8 7 7 7 7 7 7 7 7
1 3 2 2 1 1 2 1 1 2 2 1 2 2 1 1 1 0 1 2 2 2 1 1 1 2 5 8 9 8 9 9 10 9 9 8 7 7 7 7 7 7 6
2 3 2 2 2 2 2 1 1 2 2 1 1 2 2 2 2 1 1 1 1 2 1 1 1 2 5 7 8 8 9 10 9 9 9 8 8 7 7 7 7 6 6
2 3 2 2 2 2 2 2 2 2 2 3 3 3 2 2 2 1 1 0 1 2 2 2 2 3 4 5 7 7 8 8 8 9 9 8 8 8 8 7 7 7 6
3 3 2 2 2 2 2 2 2 2 2 3 3 3 2 2 2 2 1 1 1 2 3 3 2 2 3 4 5 5 6 6 7 8 9 8 8 8 8 7 7 7 7
3 3 2 2 2 2 2 2 2 2 2 2 2 2 2 2 2 2 2 2 2 2 3 3 3 2 2 3 4 3 5 5 6 8 8 8 7 7 8 7 7 7 6
3 3 2 2 2 2 2 2 1 1 1 1 2 2 2 2 2 2 2 2 2 2 2 3 4 3 3 2 3 3 2 2 2 5 6 6 7 7 7 7 7 6 6
4 3 3 2 2 1 1 1 1 1 2 2 2 3 4 5 6 3 3 2 2 2 2 3 3 3 2 2 2 2 2 2 2 3 3 4 5 5 6 6 6 6 6
3 3 3 2 2 1 3 3 2 1 2 2 2 3 4 4 5 6 6 5 4 2 1 2 2 3 2 2 2 2 2 2 1 2 2 2 4 3 5 6 7 8 8
3 3 3 3 2 2 4 4 3 2 2 2 2 2 3 4 4 4 4 5 5 5 4 1 2 2 2 2 2 2 2 2 1 2 2 1 2 2 4 6 10 10 9
3 3 3 3 3 2 3 3 3 1 2 2 2 3 3 4 4 3 2 3 3 4 3 2 2 1 1 2 2 2 2 2 1 1 2 1 2 2 3 7 11 12 11
4 4 3 3 3 2 1 2 2 1 2 2 2 3 3 3 4 4 3 3 3 2 5 7 5 5 5 4 2 1 1 2 2 2 2 2 2 1 2 3 9 12 12
4 4 4 4 3 3 2 1 1 1 1 2 2 3 4 4 4 3 2 2 2 1 2 3 2 2 2 3 2 2 1 1 1 1 2 2 2 2 2 2 6 9 10
Wind_Direction
88 79 48 312 220 156 147 106 53 80 23 6 32 63 64 97 116 126 138 150 154 159 163 170 181 193 198 204 208 210 210 207 203 201 206 211 214 216 217 219 219 219 218
92 77 30 328 337 43 94 110 74 74 34 41 26 52 50 60 111 130 142 159 164 167 170 175 182 192 200 204 207 210 210 209 207 205 206 210 212 215 219 220 218 220 222
96 114 186 236 359 346 92 126 8 263 204 156 159 99 84 76 109 137 153 163 170 177 178 180 185 193 199 203 203 203 200 198 198 197 194 198 204 204 209 217 219 217 218
142 240 273 117 286 268 172 147 235 279 36 126 165 196 156 129 146 153 156 167 169 175 182 187 188 196 203 201 196 194 194 193 190 191 187 195 200 199 204 211 213 209 210
177 197 215 108 273 313 333 277 124 181 152 320 237 203 209 144 163 146 120 141 152 150 157 171 179 181 186 192 194 194 193 189 186 190 193 204 209 209 210 208 212 215 217
180 204 214 200 233 299 319 356 16 349 255 241 276 10 45 163 138 126 142 113 124 134 137 149 164 164 160 149 158 169 176 182 187 192 196 205 208 208 210 211 211 211 214
184 197 291 190 236 198 227 237 241 298 271 236 291 323 338 34 122 132 107 99 103 106 118 125 136 143 145 147 141 150 162 172 167 174 184 196 198 200 211 216 216 216 222
227 207 211 250 223 188 206 247 211 236 265 229 199 219 272 301 344 150 146 162 121 97 106 119 129 133 137 137 133 144 147 153 150 145 140 157 173 188 209 220 221 222 221
210 298 168 263 283 218 210 220 234 239 246 261 235 201 217 220 142 34 63 104 126 120 117 117 113 115 120 114 116 130 142 135 131 128 124 112 108 114 132 173 197 178 162
227 210 215 224 253 262 243 242 222 250 238 256 263 235 222 212 195 194 336 129 136 130 124 117 107 107 109 107 107 113 133 134 130 126 120 115 111 107 106 100 102 119 142
227 233 198 211 240 261 249 267 276 264 259 267 270 260 249 235 226 189 210 206 111 121 152 118 101 106 113 113 109 111 119 129 133 130 122 112 108 103 100 99 93 88 93
249 280 214 152 275 290 282 279 279 266 274 290 299 297 268 250 241 204 205 208 183 126 78 89 107 111 114 111 113 115 123 125 127 125 119 111 103 100 101 98 94 90 89
235 301 329 104 307 303 299 296 275 281 290 282 271 286 290 273 255 208 187 202 201 172 76 88 94 104 112 115 118 117 115 122 121 119 121 122 113 101 94 89 86 80 80
224 100 73 97 60 325 333 348 320 306 332 308 293 290 299 304 297 203 198 180 199 218 120 125 84 90 106 112 114 123 120 118 118 117 114 111 107 103 103 96 90 84 81
84 93 84 88 61 39 11 7 3 0 7 351 341 338 330 334 297 247 171 190 191 201 200 156 137 107 116 115 116 117 120 118 116 114 114 112 111 109 106 102 98 93 89
66 90 86 83 72 51 28 18 34 21 19 17 16 18 12 354 359 22 179 221 191 169 170 150 146 140 126 122 123 124 123 124 122 125 123 120 117 112 106 104 100 96 96
82 87 80 76 75 69 50 38 44 42 30 31 22 36 35 31 14 352 323 212 115 121 142 128 112 118 114 121 135 135 132 134 135 137 135 133 129 124 118 112 106 102 99
104 94 86 74 67 64 54 46 39 42 38 39 32 33 27 34 32 8 3 29 98 123 138 136 131 131 129 144 146 148 140 139 136 138 137 136 136 134 130 123 116 109 103
115 110 100 90 76 60 58 44 43 58 52 48 44 41 34 42 27 30 39 46 66 100 128 140 140 138 137 138 126 121 119 129 135 137 136 137 141 139 135 133 128 121 115
127 118 110 102 94 65 46 37 35 85 96 78 61 51 46 53 41 37 49 61 80 98 116 130 137 140 128 133 134 140 136 147 139 147 140 143 147 144 143 141 141 140 137
145 132 125 116 114 108 36 14 338 89 90 84 71 71 67 69 62 55 63 52 81 102 120 131 137 136 136 146 166 178 158 149 146 149 137 152 155 156 159 159 155 155 155
133 131 127 116 101 75 15 27 38 35 71 81 81 86 90 74 76 79 77 65 60 80 96 128 141 151 160 169 151 167 154 172 179 167 161 179 168 163 162 163 166 163 161
148 143 136 121 112 59 28 29 31 53 67 62 65 66 68 58 67 77 78 70 56 52 54 82 125 150 179 169 170 184 181 187 181 185 175 189 170 161 164 169 173 176 176
156 158 149 143 138 94 40 30 17 106 102 86 73 69 70 63 52 55 87 82 67 45 31 54 68 64 98 120 156 193 187 159 163 182 165 196 193 183 170 170 182 185 190
170 169 157 152 146 120 53 31 9 149 124 107 95 78 83 83 59 53 86 89 91 93 71 73 84 94 89 91 106 160 203 187 217 221 185 200 205 189 185 185 192 196 199
176 173 166 164 156 145 131 66 7 193 144 131 115 102 86 89 90 56 89 110 107 99 110 111 94 120 147 151 168 208 233 243 236 200 178 204 206 183 216 206 185 196 208
Height
1559 1559 1559 1559 1560 1560 1560 1560 1560 1561 1561 1562 1562 1562 1563 1563 1563 1563 1563 1563 1563 1564 1564 1564 1564 1564 1564 1565 1565 1565 1566 1567 1567 1568 1568 1569 1570 1570 1571 1571 1572 1573 1573
1559 1559 1559 1559 1560 1561 1560 1560 1561 1561 1561 1562 1562 1563 1563 1563 1563 1563 1562 1563 1563 1563 1563 1563 1563 1563 1563 1563 1564 1564 1564 1565 1566 1566 1567 1567 1568 1568 1569 1569 1570 1571 1571
1559 1559 1559 1559 1560 1560 1560 1560 1561 1561 1561 1562 1562 1562 1562 1562 1562 1562 1562 1562 1562 1562 1562 1562 1562 1562 1562 1562 1562 1562 1563 1563 1564 1564 1565 1566 1566 1566 1567 1567 1568 1568 1569
1559 1559 1559 1559 1560 1560 1560 1560 1560 1560 1560 1561 1561 1561 1561 1561 1562 1562 1562 1561 1561 1561 1561 1561 1561 1561 1561 1561 1561 1561 1561 1562 1562 1562 1563 1564 1564 1564 1565 1565 1565 1566 1567
1559 1559 1559 1559 1559 1559 1559 1560 1559 1559 1559 1560 1560 1560 1560 1560 1560 1561 1561 1561 1560 1560 1560 1560 1560 1560 1559 1559 1559 1559 1560 1560 1560 1561 1561 1561 1562 1562 1562 1563 1563 1564 1564
1558 1558 1558 1558 1558 1558 1559 1559 1558 1559 1559 1559 1559 1559 1559 1559 1559 1559 1559 1559 1559 1559 1558 1558 1558 1558 1558 1558 1558 1558 1558 1558 1558 1559 1559 1559 1560 1560 1560 1560 1561 1561 1562
1558 1558 1558 1557 1557 1557 1558 1558 1558 1557 1558 1558 1558 1558 1558 1558 1558 1558 1557 1558 1558 1558 1557 1557 1557 1556 1556 1556 1556 1556 1556 1556 1556 1556 1557 1557 1557 1557 1557 1558 1558 1558 1558
1557 1557 1556 1556 1557 1557 1556 1556 1556 1556 1556 1557 1557 1556 1557 1558 1557 1557 1556 1556 1556 1556 1556 1556 1556 1555 1555 1554 1554 1554 1554 1554 1554 1554 1555 1555 1555 1555 1555 1555 1555 1555 1556
1556 1556 1555 1555 1555 1555 1555 1555 1555 1555 1555 1555 1556 1556 1556 1556 1556 1556 1556 1556 1555 1555 1555 1555 1554 1554 1553 1553 1552 1552 1552 1552 1552 1552 1553 1553 1553 1553 1553 1552 1552 1552 1552
1555 1554 1554 1553 1553 1554 1554 1553 1553 1553 1553 1553 1554 1554 1554 1554 1554 1554 1555 1554 1554 1554 1554 1554 1554 1553 1552 1551 1551 1551 1550 1551 1551 1551 1551 1551 1551 1551 1551 1550 1550 1550 1550
1554 1553 1552 1552 1552 1552 1552 1552 1552 1551 1551 1552 1552 1552 1552 1552 1552 1552 1552 1553 1553 1553 1553 1553 1552 1551 1550 1550 1549 1549 1549 1549 1549 1549 1550 1550 1550 1549 1549 1549 1549 1548 1548
1552 1552 1552 1551 1550 1550 1550 1550 1550 1550 1550 1550 1550 1550 1550 1550 1550 1550 1550 1550 1551 1552 1552 1551 1550 1550 1549 1549 1548 1548 1548 1548 1548 1548 1548 1548 1548 1548 1548 1548 1548 1547 1547
1551 1550 1550 1549 1549 1549 1548 1548 1548 1548 1548 1548 1548 1547 1548 1548 1548 1548 1547 1548 1549 1550 1550 1550 1549 1549 1548 1547 1547 1547 1547 1547 1547 1547 1547 1547 1547 1547 1547 1547 1547 1546 1546
1549 1548 1548 1548 1547 1547 1546 1546 1546 1546 1546 1546 1546 1546 1545 1546 1546 1545 1546 1546 1546 1547 1548 1548 1548 1547 1546 1546 1546 1546 1546 1546 1546 1546 1546 1546 1546 1546 1546 1546 1546 1546 1545
1548 1547 1547 1546 1546 1545 1545 1545 1544 1544 1544 1544 1544 1544 1544 1544 1544 1544 1544 1544 1545 1544 1546 1546 1546 1545 1545 1544 1544 1544 1545 1545 1545 1545 1546 1545 1545 1545 1545 1545 1545 1545 1544
1546 1546 1545 1545 1544 1544 1544 1543 1543 1543 1543 1543 1542 1542 1542 1542 1542 1542 1542 1542 1543 1543 1543 1544 1543 1543 1543 1543 1543 1543 1544 1544 1544 1545 1545 1545 1545 1544 1544 1544 1544 1543 1543
1545 1545 1544 1544 1544 1543 1543 1543 1542 1542 1542 1542 1542 1541 1541 1541 1540 1541 1541 1541 1541 1541 1541 1542 1542 1542 1542 1542 1542 1543 1543 1543 1544 1544 1544 1544 1544 1543 1543 1543 1542 1542 1542
1544 1544 1544 1544 1544 1543 1543 1542 1542 1542 1541 1541 1541 1540 1540 1540 1539 1539 1539 1540 1540 1540 1540 1540 1541 1541 1541 1541 1542 1542 1543 1543 1543 1543 1543 1543 1543 1542 1542 1542 1541 1541 1541
1543 1544 1543 1543 1543 1543 1543 1542 1542 1541 1541 1541 1540 1540 1539 1539 1538 1538 1538 1538 1538 1539 1539 1539 1540 1540 1541 1541 1541 1542 1542 1542 1542 1542 1542 1542 1542 1542 1541 1541 1541 1540 1540
1543 1543 1543 1543 1543 1543 1542 1542 1542 1541 1541 1540 1540 1539 1539 1539 1538 1538 1538 1538 1538 1538 1538 1538 1539 1539 1540 1540 1541 1541 1541 1542 1541 1542 1541 1541 1541 1541 1541 1540 1540 1539 1539
1542 1542 1542 1542 1542 1542 1542 1542 1541 1541 1541 1541 1540 1539 1539 1538 1538 1537 1537 1537 1537 1537 1537 1538 1538 1538 1539 1539 1540 1540 1541 1541 1541 1541 1541 1540 1540 1540 1540 1539 1539 1539 1538
1541 1541 1541 1542 1542 1542 1542 1542 1541 1541 1541 1540 1540 1539 1539 1538 1538 1537 1537 1537 1537 1537 1537 1537 1537 1537 1538 1538 1539 1539 1540 1540 1540 1540 1540 1540 1540 1539 1539 1539 1538 1538 1537
1540 1540 1540 1541 1541 1541 1541 1541 1541 1541 1540 1540 1540 1539 1539 1538 1538 1537 1537 1536 1536 1536 1537 1537 1536 1536 1537 1537 1538 1538 1538 1539 1539 1539 1540 1539 1539 1539 1539 1538 1538 1537 1537
1538 1539 1539 1539 1540 1540 1540 1540 1540 1540 1540 1540 1539 1539 1538 1538 1537 1537 1536 1536 1536 1535 1535 1536 1535 1536 1536 1536 1537 1537 1537 1538 1538 1539 1539 1538 1538 1538 1537 1537 1537 1537 1536
1537 1537 1538 1538 1538 1539 1539 1540 1540 1539 1539 1539 1539 1538 1538 1537 1537 1536 1536 1535 1535 1534 1535 1535 1535 1535 1534 1534 1535 1535 1536 1536 1536 1537 1537 1537 1536 1536 1536 1535 1535 1535 1535
1535 1536 1536 1537 1537 1537 1538 1538 1539 1538 1538 1538 1538 1537 1537 1537 1536 1536 1535 1534 1534 1534 1534 1533 1534 1533 1533 1533 1534 1534 1534 1534 1534 1535 1535 1535 1535 1535 1534 1534 1533 1533 1533